Bowling Green, Kentucky, United States (42101)
Lat: 36.99N, Lon: 86.44W
Wx Zone: KYZ071
Local Info
Past Weather Observations for Thursday, May 19, 2016

NOTE: This archive is for the closest National Weather Service station to Bowling Green. Information may differ from the station used for current weather conditions.

Click here for Long-term Archive

Time Weather Temperature Dewpoint Humidity Pressure Winds Precip Visibility
23:55
Mostly Cloudy
57°F / 14°C 46°F / 8°C 67% 30.06 in
(1018 mb)
ENE 5.8 mph
(ENE 9 kph)
- 10SM
23:35
Mostly Cloudy
57°F / 14°C 46°F / 8°C 67% 30.04 in
(1017 mb)
ENE 6.9 mph
(ENE 11 kph)
- 10SM
23:15
Mostly Cloudy
57°F / 14°C 46°F / 8°C 67% 30.06 in
(1018 mb)
NE 6.9 mph
(NE 11 kph)
- 10SM
22:55
Clear
57°F / 14°C 46°F / 8°C 67% 30.06 in
(1018 mb)
NE 6.9 mph
(NE 11 kph)
- 10SM
22:35
Clear
57°F / 14°C 48°F / 9°C 72% 30.06 in
(1018 mb)
ENE 6.9 mph
(ENE 11 kph)
- 10SM
22:15
Clear
57°F / 14°C 48°F / 9°C 72% 30.09 in
(1019 mb)
NE 4.6 mph
(NE 7 kph)
- 10SM
21:55
Clear
59°F / 15°C 48°F / 9°C 68% 30.09 in
(1019 mb)
NE 5.8 mph
(NE 9 kph)
- 10SM
21:35
Clear
59°F / 15°C 48°F / 9°C 68% 30.09 in
(1019 mb)
NE 5.8 mph
(NE 9 kph)
- 10SM
21:15
Clear
59°F / 15°C 48°F / 9°C 68% 30.09 in
(1019 mb)
NE 5.8 mph
(NE 9 kph)
- 10SM
20:55
Clear
59°F / 15°C 48°F / 9°C 68% 30.09 in
(1019 mb)
NE 4.6 mph
(NE 7 kph)
- 10SM
20:35
Clear
59°F / 15°C 48°F / 9°C 68% 30.09 in
(1019 mb)
ENE 5.8 mph
(ENE 9 kph)
- 10SM
20:15
Clear
61°F / 16°C 48°F / 9°C 63% 30.09 in
(1019 mb)
NE 4.6 mph
(NE 7 kph)
- 10SM
19:55
Clear
61°F / 16°C 48°F / 9°C 63% 30.09 in
(1019 mb)
NE 5.8 mph
(NE 9 kph)
- 10SM
19:35
Clear
63°F / 17°C 48°F / 9°C 59% 30.09 in
(1019 mb)
NE 5.8 mph
(NE 9 kph)
- 10SM
19:15
Clear
63°F / 17°C 48°F / 9°C 59% 30.09 in
(1019 mb)
NE 8.1 mph
(NE 13 kph)
- 10SM
18:55
Clear
64°F / 18°C 48°F / 9°C 56% 30.09 in
(1019 mb)
NE 4.6 mph
(NE 7 kph)
- 10SM
18:35
Clear
64°F / 18°C 48°F / 9°C 56% 30.09 in
(1019 mb)
NE 6.9 mph
(NE 11 kph)
- 10SM
18:15
Clear
66°F / 19°C 48°F / 9°C 52% 30.09 in
(1019 mb)
NE 5.8 mph
(NE 9 kph)
- 10SM
17:55
Clear
68°F / 20°C 48°F / 9°C 49% 30.09 in
(1019 mb)
NE 4.6 mph
(NE 7 kph)
- 10SM
17:35
Clear
70°F / 21°C 46°F / 8°C 43% 30.09 in
(1019 mb)
NE 6.9 mph
(NE 11 kph)
- 10SM
17:15
Clear
70°F / 21°C 46°F / 8°C 43% 30.06 in
(1018 mb)
NE 6.9 mph
(NE 11 kph)
- 10SM
16:55
Clear
70°F / 21°C 46°F / 8°C 43% 30.06 in
(1018 mb)
NE 8.1 mph
(NE 13 kph)
- 10SM
16:35
Clear
70°F / 21°C 46°F / 8°C 43% 30.06 in
(1018 mb)
NE 9.2 mph
(NE 15 kph)
- 10SM
16:15
Clear
70°F / 21°C 46°F / 8°C 43% 30.09 in
(1019 mb)
NE 8.1 mph
(NE 13 kph)
- 10SM
15:55
Clear
72°F / 22°C 45°F / 7°C 38% 30.09 in
(1019 mb)
NE 6.9 mph
(NE 11 kph)
- 10SM
15:35
Clear
72°F / 22°C 45°F / 7°C 38% 30.09 in
(1019 mb)
NE 6.9 mph
(NE 11 kph)
- 10SM
15:15
Clear
72°F / 22°C 45°F / 7°C 38% 30.09 in
(1019 mb)
NE 10.4 mph
(NE 17 kph)
- 10SM
14:55
Partly Cloudy
72°F / 22°C 45°F / 7°C 38% 30.09 in
(1019 mb)
NE 8.1 mph
(NE 13 kph)
- 10SM
14:35
Partly Cloudy
72°F / 22°C 45°F / 7°C 38% 30.09 in
(1019 mb)
ENE 9.2 mph
(ENE 15 kph)
- 10SM
14:15
Partly Cloudy
70°F / 21°C 45°F / 7°C 40% 30.09 in
(1019 mb)
ENE 8.1 mph
(ENE 13 kph)
- 10SM
13:55
Partly Cloudy
70°F / 21°C 45°F / 7°C 40% 30.12 in
(1020 mb)
NE 8.1 mph
(NE 13 kph)
- 10SM
13:35
Partly Cloudy
72°F / 22°C 46°F / 8°C 41% 30.12 in
(1020 mb)
NE 6.9 mph
(NE 11 kph)
- 10SM
13:15
Partly Cloudy
72°F / 22°C 45°F / 7°C 38% 30.09 in
(1019 mb)
E 12.7 mph
(E 20 kph)
- 10SM
12:55
Partly Cloudy
72°F / 22°C 46°F / 8°C 41% 30.09 in
(1019 mb)
ENE 10.4 mph
(ENE 17 kph)
- 10SM
12:35
Mostly Cloudy
72°F / 22°C 48°F / 9°C 44% 30.09 in
(1019 mb)
E 12.7 mph
(E 20 kph)
- 10SM
12:15
Partly Cloudy
70°F / 21°C 46°F / 8°C 43% 30.09 in
(1019 mb)
ENE 10.4 mph
(ENE 17 kph)
- 10SM
11:55
Mostly Cloudy
68°F / 20°C 46°F / 8°C 46% 30.12 in
(1020 mb)
ENE 8.1 mph
(ENE 13 kph)
- 10SM
11:35
Partly Cloudy
70°F / 21°C 46°F / 8°C 43% 30.12 in
(1020 mb)
E 4.6 mph
(E 7 kph)
- 10SM
11:15
Mostly Cloudy
68°F / 20°C 48°F / 9°C 49% 30.12 in
(1020 mb)
ENE 9.2 mph
(ENE 15 kph)
- 10SM
10:55
Partly Cloudy
68°F / 20°C 48°F / 9°C 49% 30.12 in
(1020 mb)
NE 9.2 mph
(NE 15 kph)
- 10SM
10:35
Partly Cloudy
68°F / 20°C 48°F / 9°C 49% 30.15 in
(1021 mb)
ENE 10.4 mph
(ENE 17 kph)
- 10SM
10:15
Partly Cloudy
68°F / 20°C 46°F / 8°C 46% 30.12 in
(1020 mb)
ENE 10.4 mph
(ENE 17 kph)
- 10SM
09:55
Partly Cloudy
68°F / 20°C 48°F / 9°C 49% 30.15 in
(1021 mb)
ENE 9.2 mph
(ENE 15 kph)
- 10SM
09:35
Partly Cloudy
66°F / 19°C 50°F / 10°C 56% 30.12 in
(1020 mb)
E 10.4 mph
(E 17 kph)
- 10SM
09:15
Partly Cloudy
66°F / 19°C 50°F / 10°C 56% 30.15 in
(1021 mb)
E 8.1 mph
(E 13 kph)
- 10SM
08:55
Clear
63°F / 17°C 52°F / 11°C 68% 30.15 in
(1021 mb)
ENE 6.9 mph
(ENE 11 kph)
- 10SM
08:35
Clear
63°F / 17°C 52°F / 11°C 68% 30.15 in
(1021 mb)
ENE 9.2 mph
(ENE 15 kph)
- 10SM
08:15
Clear
61°F / 16°C 52°F / 11°C 72% 30.15 in
(1021 mb)
NE 9.2 mph
(NE 15 kph)
- 10SM
07:55
Clear
59°F / 15°C 54°F / 12°C 82% 30.15 in
(1021 mb)
ENE 8.1 mph
(ENE 13 kph)
- 10SM
07:35
Clear
57°F / 14°C 55°F / 13°C 94% 30.15 in
(1021 mb)
ENE 6.9 mph
(ENE 11 kph)
- 10SM
07:15
Clear
55°F / 13°C 54°F / 12°C 94% 30.15 in
(1021 mb)
ENE 5.8 mph
(ENE 9 kph)
- 10SM
06:55
Clear
54°F / 12°C 54°F / 12°C 100% 30.15 in
(1021 mb)
ENE 5.8 mph
(ENE 9 kph)
- 10SM
06:35
Clear
52°F / 11°C 52°F / 11°C 100% 30.15 in
(1021 mb)
ENE 4.6 mph
(ENE 7 kph)
- 10SM
06:15
Clear
52°F / 11°C 52°F / 11°C 100% 30.15 in
(1021 mb)
ENE 5.8 mph
(ENE 9 kph)
- 10SM
05:55
Clear
50°F / 10°C 50°F / 10°C 100% 30.15 in
(1021 mb)
ENE 6.9 mph
(ENE 11 kph)
- 7SM
05:35
Clear
Fog And Mist
48°F / 9°C 48°F / 9°C 100% 30.15 in
(1021 mb)
NE 4.6 mph
(NE 7 kph)
- 5SM
05:15
Clear
Fog And Mist
46°F / 8°C 46°F / 8°C 100% 30.15 in
(1021 mb)
Calm - 2SM
04:55
Obscured
Fog And Mist
46°F / 8°C 46°F / 8°C 100% 30.12 in
(1020 mb)
NE 3.5 mph
(NE 6 kph)
- 1 1/4SM
04:35
Clear
Fog And Mist
48°F / 9°C 48°F / 9°C 100% 30.12 in
(1020 mb)
Calm - 5SM
04:15
Clear
Fog And Mist
46°F / 8°C 46°F / 8°C 100% 30.12 in
(1020 mb)
Calm - 3SM
03:55
Obscured
Fog And Mist
46°F / 8°C 46°F / 8°C 100% 30.12 in
(1020 mb)
N 3.5 mph
(N 6 kph)
- 1SM
03:35
Obscured
Fog And Mist
46°F / 8°C 46°F / 8°C 100% 30.12 in
(1020 mb)
Calm - 1 1/4SM
03:15
Partly Cloudy
Fog And Mist
46°F / 8°C 46°F / 8°C 100% 30.12 in
(1020 mb)
Calm - 2SM
02:55
Overcast
Fog And Mist
46°F / 8°C 46°F / 8°C 100% 30.12 in
(1020 mb)
Calm - 3/4SM
02:35
Overcast
Fog
46°F / 8°C 46°F / 8°C 100% 30.12 in
(1020 mb)
Calm - 1/2SM
02:15
Mostly Cloudy
Fog And Mist
45°F / 7°C 45°F / 7°C 100% 30.12 in
(1020 mb)
Calm - 1 1/4SM
01:55
Clear
Fog And Mist
46°F / 8°C 46°F / 8°C 100% 30.12 in
(1020 mb)
Calm - 3SM
01:35
Clear
Fog And Mist
46°F / 8°C 46°F / 8°C 100% 30.12 in
(1020 mb)
Calm - 3SM
01:15
Partly Cloudy
Fog And Mist
46°F / 8°C 46°F / 8°C 100% 30.12 in
(1020 mb)
Calm - 1 1/2SM
00:55
Mostly Cloudy
Fog And Mist
46°F / 8°C 46°F / 8°C 100% 30.12 in
(1020 mb)
Calm - 1SM
00:35
Partly Cloudy
Fog And Mist
46°F / 8°C 46°F / 8°C 100% 30.12 in
(1020 mb)
Calm - 1 1/4SM
00:15
Mostly Cloudy
Fog And Mist
46°F / 8°C 46°F / 8°C 100% 30.12 in
(1020 mb)
Calm - 1 1/4SM
Time Weather Temperature Dewpoint Humidity Pressure Winds Precip Visibility


Weather for websites

WeatherForYou.com, LLC is not responsible for any damages or problems caused by this service. Current weather conditions are obtained from the closest station including government and personal stations which may have varying degrees of accuracy. Weather forecasts are derived from the NOAA NDFD. Like all things, this site belongs to Jesus Christ... He just trusts us to maintain it. If you have any questions or comments email webmaster@weatherforyou.com

Copyright © 2016, WeatherForYou.com LLC. All rights reserved.